Home   Weather   Würzburg   Past weeks

Flag for Germany Past Weather in Würzburg, Bavaria, Germany — Yesterday and Last 2 Weeks

Now
73 °F

Partly sunny.


Feels Like: 76 °F
Forecast: 56 / 68 °F
Wind: 8 mph from South

Location: Niederstetten

Current Time: Aug 18, 2017 at 11:05:31 am

Latest Report: Aug 18, 2017 at 10:20 am


Visibility: N/A

Pressure: 30.01 "Hg

Humidity: 65%

Dew Point: 61 °F

Location of WürzburgLocation

Past Weather in Würzburg — Graph

°F

Würzburg Temperature Yesterday

Maximum temperature yesterday: 77 °F (at 3:20 pm)
Minimum temperature yesterday: 59 °F (at 6:20 am)
Average temperature yesterday: 69 °F

High & Low Weather Summary for the Past Weeks

 TemperatureHumidityPressure
High82 °F (Aug 15, 2:20 pm)100% (Aug 10, 11:20 am)30.21 "Hg (Aug 10, 11:20 am)
Low52 °F (Aug 7, 3:20 am)39% (Aug 7, 5:20 pm)29.86 "Hg (Aug 8, 7:20 am)
Average64 °F75%30.07 "Hg
* Reported Aug 3 9:20 am — Aug 18 9:20 am, Würzburg. Weather by CustomWeather, © 2017

Note: Actual official high and low records may vary slightly from our data, if they occured in-between our weather recording intervals... More about our weather records

Advertising

Würzburg Weather History for the Previous 24 Hours

Scroll right to see more
 ConditionsComfort  
Time TempWeatherWind HumidityBarometerVisibility
9:20 am
Fri, Aug 18
70 °FPartly sunny.6 mph78%30.04 "HgN/A
8:20 am70 °FBroken clouds.6 mph78%30.04 "HgN/A
7:20 am66 °FBroken clouds.5 mph83%30.04 "HgN/A
6:20 am64 °FBroken clouds.7 mph88%30.04 "HgN/A
5:20 am64 °FPartly cloudy.7 mph88%30.04 "HgN/A
4:20 am63 °FPassing clouds.6 mph88%30.04 "HgN/A
3:20 am64 °FPassing clouds.5 mph88%30.07 "HgN/A
2:20 am63 °FPassing clouds.5 mph88%30.07 "HgN/A
1:20 am64 °FPartly cloudy.5 mph83%30.09 "HgN/A
12:20 am64 °FPassing clouds.2 mph83%30.09 "HgN/A
11:20 pm
Thu, Aug 17
64 °FPassing clouds.3 mph83%30.09 "HgN/A
10:20 pm68 °FPassing clouds.3 mph73%30.07 "HgN/A
9:20 pm70 °FPassing clouds.3 mph69%30.07 "HgN/A
8:20 pm72 °FScattered clouds.7 mph61%30.07 "HgN/A
7:20 pm75 °FPartly sunny.12 mph57%30.07 "HgN/A
6:20 pm75 °FBroken clouds.8 mph57%30.07 "HgN/A
5:20 pm77 °FPartly sunny.9 mph54%30.07 "HgN/A
4:20 pm77 °FPartly sunny.10 mph57%30.07 "HgN/A
3:20 pm77 °FBroken clouds.12 mph57%30.09 "HgN/A
2:20 pm75 °FPartly sunny.10 mph61%30.09 "HgN/A
1:20 pm73 °FBroken clouds.7 mph65%30.09 "HgN/A
12:20 pm73 °FBroken clouds.8 mph65%30.09 "HgN/A
11:20 am73 °FPartly sunny.7 mph69%30.12 "HgN/A
Weather by CustomWeather, © 2017

See weather overviewHow to use our weather pages